Location: Juzet
(42.9779°N, 0.7597°E)
Time: 02:10:17
(UTC+00:00)

ADEOS II - Pass Details

Date: 14 July 2020
Orbit: 799 x 801 km, 98.5° (Epoch: 04 August)

Event Time Altitude Azimuth Distance (km) Brightness Sun altitude
Rises 02:58:27 0° 7° (N) 3,319 6.3 -13.8°
Reaches altitude 10° 03:00:53 10° 1° (N) 2,384 5.3 -13.5°
Maximum altitude 03:05:51 45° 291° (WNW) 1,084 2.6 -12.9°
Enters shadow 03:09:33 17° 225° (SW) 1,908 3.4 -12.5°
